W1NHD Weather Reports


time (UTC)temp
C
wind
direction
speed
KPH
gust
KPH
rain 1hr
cm
rain 24hr
cm
rain mn
cm
humidity
%
barometer
mb
20260507211516 17 338 6.4 14.5 0.00 0.33 0.25 35 1004.6
20260507210517 17 293 12.9 25.7 0.00 0.36 0.25 35 1004.7
20260507205536 17 293 9.7 22.5 0.00 0.36 0.25 35 1004.6
20260507204516 17 293 11.3 22.5 0.00 0.36 0.25 34 1004.7
20260507203518 17 293 12.9 24.1 0.00 0.36 0.25 33 1004.6
20260507202559 17 293 12.9 27.4 0.00 0.36 0.25 34 1004.6
20260507201540 17 293 11.3 27.4 0.00 0.36 0.25 35 1004.5
20260507200517 17 293 11.3 19.3 0.00 0.36 0.25 35 1004.6
20260507195517 17 0 9.7 24.1 0.00 0.36 0.25 37 1004.6
20260507194518 17 293 6.4 17.7 0.00 0.36 0.25 37 1004.7
20260507193519 17 293 14.5 27.4 0.00 0.36 0.25 37 1004.8
20260507192518 17 293 14.5 29.0 0.00 0.36 0.25 37 1004.9
20260507191517 17 293 11.3 27.4 0.00 0.36 0.25 37 1004.9
20260507190518 17 338 11.3 19.3 0.00 0.36 0.25 36 1005.1
20260507185517 17 293 9.7 22.5 0.00 0.36 0.25 41 1005.0
20260507184537 15 225 6.4 16.1 0.00 0.36 0.25 46 1005.2
20260507183518 15 180 3.2 8.0 0.00 0.36 0.25 65 1005.4
20260507182517 15 180 6.4 14.5 0.00 0.36 0.25 66 1005.4
20260507181518 14 158 6.4 16.1 0.00 0.36 0.25 68 1005.6
20260507180517 13 158 8.0 14.5 0.00 0.36 0.25 71 1005.7
20260507175517 12 158 4.8 9.7 0.00 0.36 0.25 72 1005.6
20260507174517 12 158 11.3 17.7 0.00 0.36 0.25 70 1005.8
20260507173539 12 158 4.8 14.5 0.00 0.36 0.25 71 1005.8
20260507172517 12 158 3.2 11.3 0.00 0.36 0.25 72 1005.8
20260507171518 12 180 8.0 16.1 0.00 0.36 0.25 71 1005.8
20260507170517 13 158 12.9 24.1 0.00 0.36 0.25 68 1005.9
20260507165517 13 158 12.9 24.1 0.00 0.36 0.25 69 1006.0
20260507164517 13 180 9.7 24.1 0.00 0.36 0.25 68 1006.2
20260507163517 12 180 9.7 20.9 0.00 0.36 0.25 69 1006.3
20260507162539 12 180 11.3 20.9 0.00 0.36 0.25 71 1006.4
20260507161518 12 158 11.3 19.3 0.00 0.36 0.25 71 1006.7
20260507160518 13 180 8.0 17.7 0.00 0.36 0.25 70 1006.5
20260507155518 13 180 8.0 17.7 0.00 0.36 0.25 68 1006.7
20260507154517 13 180 9.7 19.3 0.00 0.36 0.25 67 1006.7
20260507153517 12 180 8.0 16.1 0.00 0.36 0.25 70 1006.8
20260507152557 13 180 6.4 14.5 0.00 0.36 0.25 67 1006.9
20260507151517 13 180 8.0 14.5 0.00 0.36 0.25 68 1006.9
20260507150517 14 315 3.2 8.0 0.00 0.36 0.25 66 1007.1
20260507145518 14 45 6.4 14.5 0.00 0.36 0.25 66 1007.0
20260507144538 14 68 4.8 12.9 0.00 0.36 0.25 67 1007.1
20260507143517 14 45 1.6 12.9 0.00 0.36 0.25 67 1007.4
20260507142517 14 0 3.2 12.9 0.00 0.36 0.25 67 1007.2
20260507141517 13 68 3.2 9.7 0.00 0.36 0.25 72 1007.3
20260507140537 13 293 4.8 11.3 0.00 0.36 0.25 69 1007.4
20260507135517 13 68 4.8 11.3 0.00 0.36 0.25 72 1007.4
20260507134517 12 270 3.2 9.7 0.00 0.36 0.25 72 1007.4
20260507133518 12 0 6.4 9.7 0.00 0.36 0.25 74 1007.5
20260507132517 12 45 3.2 6.4 0.00 0.36 0.25 76 1007.6
20260507131517 11 0 4.8 11.3 0.00 0.36 0.25 78 1007.8
20260507130538 11 338 6.4 12.9 0.00 0.36 0.25 81 1007.9
20260507125517 11 45 3.2 11.3 0.00 0.36 0.25 85 1008.0
20260507124517 10 0 4.8 12.9 0.00 0.36 0.25 85 1007.8
20260507123517 10 338 1.6 8.0 0.00 0.36 0.25 87 1007.7
20260507122517 10 0 1.6 4.8 0.00 0.36 0.25 89 1007.6
20260507121516 9 338 1.6 6.4 0.00 0.36 0.25 89 1007.6
20260507120516 9 0 4.8 9.7 0.00 0.36 0.25 89 1007.7
20260507115518 8 0 3.2 12.9 0.00 0.36 0.25 90 1007.4
20260507114516 8 0 4.8 14.5 0.03 0.36 0.25 91 1007.5
20260507113516 8 23 3.2 8.0 0.03 0.36 0.25 93 1007.5
20260507112517 8 0 1.6 6.4 0.03 0.36 0.25 93 1007.3
20260507111538 8 0 3.2 4.8 0.03 0.36 0.25 93 1007.4
20260507110516 8 0.0 1.6 0.05 0.36 0.25 93 1007.2
20260507105517 8 0.0 3.2 0.08 0.36 0.25 92 1007.6
20260507104516 8 0.0 3.2 0.05 0.33 0.23 92 1007.4
20260507103538 8 315 1.6 6.4 0.08 0.33 0.23 92 1007.3
20260507102517 8 338 1.6 6.4 0.13 0.33 0.23 92 1007.3
20260507101517 8 338 4.8 9.7 0.18 0.33 0.23 91 1007.1
20260507100516 8 0 3.2 8.0 0.15 0.30 0.20 91 1007.1
20260507095516 8 0 4.8 12.9 0.13 0.28 0.18 91 1006.8
20260507094516 8 0 6.4 16.1 0.13 0.28 0.18 91 1006.9
20260507093516 9 0 6.4 14.5 0.10 0.25 0.15 90 1006.9
20260507092536 9 338 4.8 14.5 0.08 0.20 0.10 90 1007.0
20260507091536 10 338 6.4 12.9 0.03 0.15 0.05 89 1007.1
20260507090516 10 293 8.0 17.7 0.03 0.15 0.05 89 1007.0
20260507085516 10 338 4.8 12.9 0.05 0.15 0.05 90 1006.8
20260507084516 10 45 3.2 12.9 0.05 0.15 0.05 90 1006.5
20260507083516 10 338 9.7 19.3 0.05 0.15 0.05 89 1006.3
20260507082516 10 315 9.7 19.3 0.03 0.13 0.03 89 1006.5
20260507081536 10 315 9.7 22.5 0.03 0.13 0.03 89 1006.4
20260507080516 11 338 9.7 20.9 0.03 0.13 0.03 87 1006.4
20260507075516 11 315 8.0 17.7 0.00 0.10 0.00 86 1006.3
20260507074516 11 0 4.8 17.7 0.00 0.10 0.00 86 1006.0
20260507073537 11 0 4.8 12.9 0.00 0.10 0.00 86 1005.9
20260507072516 11 0 6.4 17.7 0.00 0.10 0.00 85 1005.9
20260507071516 11 338 4.8 14.5 0.00 0.10 0.00 86 1006.0
20260507070516 11 293 8.0 20.9 0.00 0.10 0.00 87 1006.0
20260507065516 12 338 4.8 14.5 0.00 0.10 0.00 90 1006.0
20260507064516 12 338 4.8 17.7 0.00 0.10 0.00 90 1005.9
20260507063516 12 338 4.8 9.7 0.00 0.10 0.00 91 1005.6
20260507062516 12 338 4.8 14.5 0.00 0.10 0.00 91 1005.7
20260507061516 12 315 3.2 11.3 0.00 0.10 0.00 92 1005.9
20260507060516 12 315 4.8 11.3 0.00 0.10 0.00 92 1005.8
20260507055536 12 293 6.4 17.7 0.00 0.10 0.00 94 1006.1
20260507054536 12 293 6.4 16.1 0.00 0.10 0.00 95 1006.0
20260507053515 12 315 4.8 17.7 0.00 0.10 0.00 95 1005.8
20260507052536 13 338 6.4 17.7 0.00 0.10 0.00 95 1005.9
20260507051556 14 315 4.8 16.1 0.00 0.10 0.00 97 1005.8
20260507050556 14 293 8.0 17.7 0.00 0.10 0.00 98 1005.7
20260507045515 14 315 4.8 17.7 0.00 0.10 0.00 98 1005.6
20260507044516 13 270 1.6 6.4 0.00 0.10 0.00 98 1005.6
20260507043516 13 203 1.6 4.8 0.00 0.10 0.00 98 1005.7
20260507042516 13 203 1.6 8.0 0.00 0.10 0.00 98 1005.6
20260507041518 13 203 1.6 6.4 0.00 0.10 0.00 98 1005.9
20260507040518 13 203 1.6 9.7 0.00 0.10 0.00 98 1005.8
20260507035518 13 180 3.2 8.0 0.00 0.10 0.10 98 1005.8
20260507034538 13 248 4.8 11.3 0.00 0.10 0.10 98 1005.9
20260507033518 13 225 4.8 14.5 0.00 0.10 0.10 98 1005.6
20260507032516 13 203 4.8 11.3 0.00 0.10 0.10 98 1005.4
20260507031516 13 180 4.8 11.3 0.00 0.10 0.10 98 1005.3
20260507030517 13 180 6.4 20.9 0.00 0.10 0.10 98 1005.3
20260507025516 13 180 6.4 16.1 0.00 0.10 0.10 98 1005.3
20260507024538 13 180 4.8 16.1 0.00 0.10 0.10 97 1005.4
20260507023517 13 203 8.0 20.9 0.00 0.10 0.10 98 1005.3
20260507022516 13 203 4.8 9.7 0.00 0.10 0.10 97 1005.3
20260507021517 13 180 6.4 17.7 0.00 0.10 0.10 97 1005.6
20260507020517 13 225 4.8 14.5 0.00 0.10 0.10 97 1005.6
20260507015517 13 180 6.4 16.1 0.00 0.10 0.10 97 1005.7
20260507014516 13 203 8.0 19.3 0.00 0.10 0.10 97 1005.7
20260507013516 13 203 6.4 19.3 0.00 0.10 0.10 97 1005.8
20260507012539 13 203 6.4 20.9 0.00 0.10 0.10 97 1005.9
20260507011516 13 203 9.7 22.5 0.00 0.10 0.10 97 1006.0
20260507010516 13 180 8.0 17.7 0.00 0.10 0.10 97 1005.9
20260507005518 13 180 9.7 19.3 0.03 0.10 0.10 97 1005.9
20260507004516 13 180 9.7 24.1 0.03 0.10 0.10 97 1006.0
20260507003536 13 180 12.9 29.0 0.05 0.10 0.10 97 1005.9
20260507002516 13 180 9.7 20.9 0.05 0.10 0.10 97 1005.8
20260507001516 13 180 12.9 19.3 0.05 0.10 0.10 97 1005.8
20260507000516 13 180 12.9 29.0 0.05 0.10 0.10 97 1005.9
20260506235536 12 180 11.3 22.5 0.03 0.08 0.08 97 1005.8
20260506234536 12 180 16.1 30.6 0.03 0.08 0.08 97 1005.7
20260506233516 13 180 16.1 32.2 0.00 0.05 0.05 96 1005.9
20260506232516 13 180 12.9 25.7 0.00 0.05 0.05 96 1006.0
20260506231516 13 180 14.5 25.7 0.03 0.05 0.05 96 1006.0
20260506230516 13 180 16.1 32.2 0.03 0.05 0.05 96 1006.3
20260506225516 13 180 14.5 27.4 0.03 0.05 0.05 97 1006.1
20260506224516 13 180 16.1 29.0 0.03 0.05 0.05 95 1006.0
20260506223516 13 180 14.5 32.2 0.03 0.05 0.05 95 1006.3
20260506222516 13 180 12.9 29.0 0.03 0.05 0.05 95 1006.3
20260506221536 13 180 14.5 27.4 0.00 0.03 0.03 95 1006.6
20260506220516 13 180 12.9 20.9 0.03 0.03 0.03 95 1006.7
20260506215516 13 180 12.9 25.7 0.03 0.03 0.03 94 1006.8
20260506214516 13 180 11.3 25.7 0.03 0.03 0.03 94 1006.9
20260506213516 13 180 12.9 30.6 0.03 0.03 0.03 93 1006.8
20260506212515 14 180 11.3 25.7 0.03 0.03 0.03 93 1007.0